Kezdőlap
METAR-TAF:

METAR-TAF

Repülőterek :

Marshall, Missouri, Amerikai Egyesült Államok

földrajzi szélesség: 39-05-44N, földrajzi hosszúság: 093-12-10W, magasság: 237 m

Jelenlegi meteorológiai megfigyelések

A jelentés 26 perccel ezelõtt készült, 02:35 UTC
Dél-délkeleti szél 5 kt
Hőmérséklet -2°C
Páratartalom 43%
Légköri nyomás 1025 hPa
Látótávolság: 16.1 km
Szórványos felhőzet 7000 lábon
Borult 9500 lábon

METAR: KMHL 270235Z AUTO 16005KT 10SM SCT070 OVC095 M02/M13 A3026 RMK AO2

Idő: 21:01 (03:01 UTC)


TAF: hiányzik

Meteorológiai megfigyelések és előrejelzések több, mint 4000 repülőtéren (METAR és TAF jelentéseket).

A térképen piros és sárga pontok jelzik az elérhető meteorológiai állomásokat.

Mozgassa az egeret a pont fölött, hogy megjelenjen az állomás neve.

Azután kattintson az időjárási megfigyelések és előrejelzések megtekintéséhez.

A térkép megváltoztatása: kattintson a fekete keresztel jelölt zöld gombra ráközelítéshez, a vonallal jelölt zöld gombra távolításhoz, vagy a zöld nyilakra a szomszédos térképek eléréséhez.


METAR-TAF: